Follow iAlert.com on twitter @ialertcom
Search For Active Alerts in Your Area  
  Hi Guest:  [ Sign-up / Services ] [ Login ]

Current weather by "City, St" or "zip code"  
 

Advertise Here

Current Conditions: Fort Hood, Hood AAF Ft Hood, TX

Overcast


58.0 F

Last Updated on Oct 19 2018, 12:58 am CDT
Humidity: 92%
Wind Speed: NE 5.8 mph
Barometer 30.20 in
Dewpoint: 55.4 F
Visibility: 10.00 mi
Precip: Trace
Heat Index: NA
Wind Chill: 57 F
Current conditions at:

Fort Hood, Hood AAF Ft Hood, TX (KHLR)

Lat: 31.13 Lon: 97.7

Local Radar Image active severe weather and emergency alerts image image weather storm and storm spotter reports image weather observation monitoring service image
Local
Radar
Active
Alerts
Storm Reports Obs
Monitoring

iAlert Weather and Emergency Alert Notification Services:


ialert severe weather and emergency alerts by text message and email ialert daily weather forecast by email and text message service ialert real-time weather-observation monitoring and alert notification service ialert storm report monitoring alert notification

Observation History for Fort Hood, Hood AAF Ft Hood, TX


Time Wind
(mph)
Vis
(mi)
Weather Precip (in) Temperature (F) Relative
Humidity
Wind
Chill
(°F)
Heat
Index
(°F)
Pressure
Air Dwpt altimeter
(in)
sea level
(mb)
12:58 am CDT NE 5.8 10.00 Overcast Trace 58.0 55.4 92% 57 NA 30.20 1022.4
11:58 pm CDT NE 3.5 10.00 Overcast -- 58.0 55.2 92% NA NA 30.22 1023.0
10:58 pm CDT NE 4.6 10.00 Overcast -- 58.0 55.2 91% 58 NA 30.23 1023.4
8:58 pm CDT N 4.6 10.00 Overcast -- 57.0 55.6 94% 57 NA 30.24 1023.8
7:58 pm CDT N 8.1 10.00 Overcast -- 57.0 55.2 93% 55 NA 30.22 1023.1
6:58 pm CDT N 6.9 10.00 Overcast -- 57.0 55.4 94% 56 NA 30.22 1023.1
5:58 pm CDT N 8.1 6.00 Fog/Mist Trace 57.0 55.6 94% 55 NA 30.22 1023.1
4:58 pm CDT NE 10.4 6.00 Fog/Mist 00.01 57.0 55.6 94% 55 NA 30.22 1023.1
3:58 pm CDT NE 10.4 3.00 Fog/Mist Trace 57.0 55.4 94% 55 NA 30.23 1023.5
2:58 pm CDT NE 9.2 0.50 Light Rain Fog 00.02 57.0 55.6 94% 55 NA 30.24 1023.9
1:58 pm CDT NE 10.4 5.00 Fog/Mist Trace 58.0 55.2 91% 56 NA 30.27 1024.9
12:58 pm CDT NE 6.9 8.00 Overcast Trace 58.0 53.4 86% 57 NA 30.30 1025.9
11:58 am CDT NE 11.5 10.00 Overcast -- 58.0 51.4 78% 56 NA 30.31 1026.2
10:58 am CDT NE 10.4 10.00 Overcast -- 57.0 50.7 79% 55 NA 30.32 1026.6
9:58 am CDT N 9.2 10.00 Overcast -- 56.0 50.5 81% 54 NA 30.32 1026.6
8:58 am CDT NE 10.4 10.00 Overcast -- 54.0 50.2 86% 51 NA 30.30 1026.0
7:58 am CDT N 6.9 10.00 Overcast -- 53.0 49.3 86% 51 NA 30.29 1025.6
6:58 am CDT N 10.4 10.00 Overcast -- 53.0 49.1 88% 50 NA 30.28 1025.3
5:58 am CDT N 9.2 10.00 Overcast -- 52.0 48.4 88% 49 NA 30.28 1025.3
4:58 am CDT N 8.1 10.00 Overcast -- 51.0 47.1 85% 48 NA 30.28 1025.3
3:58 am CDT N 6.9 10.00 Overcast -- 51.0 47.1 86% 48 NA 30.28 1025.3
2:58 am CDT N 8.1 10.00 Overcast -- 51.0 47.5 88% 48 NA 30.30 1026.0
1:58 am CDT N 10.4 10.00 Overcast -- 51.0 46.4 85% 47 NA 30.30 1026.0
12:58 am CDT N 10.4 10.00 Overcast -- 50.0 45.5 85% 46 NA 30.32 1026.6

Regional Weather Observation


Gatesville, City-County Airport, TX (KGOP)

Overcast
57.0 F

Fort Hood, Hood AAF Ft Hood, TX (KHLR)

Overcast
58.0 F

Killeen, Skylark Field Airport, TX (KILE)

Overcast
NULL F

Lampasas, Lampasas Airport, TX (KLZZ)

Overcast
55.0 F

Temple, Draughon-Miller Central Texas Regional Airport, TX (KTPL)

Overcast
59.0 F

Hamilton Municipal Airport, TX (KMNZ)

Rain
56.0 F

Advertise Here